Regional Weather Roundup
Issued by NWS

Home | Current Version | Previous Version | Text Only | Print | Product List | Glossary Off
Versions: 1 2 3 4 5 6 7 8 9 10 11 12 13 14 15 16 17 18 19 20 21 22 23 24 25 26 27 28 29 30 31 32 33 34 35 36 37 38 39 40 41 42 43 44 45 46 47 48 49 50

000
ASUS43 KIND 010059
RWRIN

WEATHER ROUNDUP FOR INDIANA
NATIONAL WEATHER SERVICE INDIANAPOLIS IN
900 PM EDT TUE MAY 31 2016

NOTE: "FAIR" INDICATES FEW OR NO CLOUDS BELOW 12,000 FEET WITH NO
SIGNIFICANT WEATHER AND/OR OBSTRUCTIONS TO VISIBILITY.

* - STATION DOES NOT REPORT WEATHER SUCH AS PRECIPITATION OR FOG.

+ - STATION NOT QUALITY CONTROLLED BY THE NATIONAL WEATHER SERVICE.
    USE DATA WITH CAUTION...ESPECIALLY DEWPOINT AND RELATIVE
    HUMIDITY OBSERVATIONS.

INZ001>003-010>013-019-020-010200-
NORTHWEST INDIANA

CITY           SKY/WX    TMP DP  RH WIND       PRES   REMARKS
GARY /AIRPORT/ MOCLDY    64  64 100 E8        29.98S
RENSSELAER +   CLOUDY    70  61  73 NE10      29.96F

$$

LMZ046-743>745-010200-
SOUTHERN LAKE MICHIGAN

STATION/POSITION TIME  TEMP    WIND        PRES    WAVE
                       AIR SEA DIR/SP/G            HT
                 (UTC) (F)     (DEG/KT/KT) (MB)    (FT)
BURNS HARBOR     0000   62      70/ 15/ 18 1015.9F
MICHIGAN CITY    0000   62      30/ 14/ 15   N/A
5NW MICH CITY    0000   63 62   30/  8/ 10   N/A     2

$$

INZ004-005-014>016-021>024-010200-
NORTH CENTRAL INDIANA

CITY           SKY/WX    TMP DP  RH WIND       PRES   REMARKS
ELKHART        CLOUDY    68  64  88 N8        30.01
GOSHEN         CLOUDY    71  58  63 N10       30.00R
SOUTH BEND     LGT RAIN  64  61  90 N6        30.01S

$$

INZ006>009-017-018-025>027-010200-
NORTHEAST INDIANA

CITY           SKY/WX    TMP DP  RH WIND       PRES   REMARKS
ANGOLA *+        N/A     75  43  31 E9        30.01S
FORT WAYNE     PTCLDY    77  50  38 E15       29.98R

$$

INZ028-029-035-036-043>045-051>053-010200-
WEST CENTRAL INDIANA

CITY           SKY/WX    TMP DP  RH WIND       PRES   REMARKS
CRAWFORDSVL +  PTCLDY    76  54  45 CALM      29.94R
GREENCASTLE +  CLEAR     73  63  68 CALM      29.94S
LAFAYETTE      CLEAR     73  58  59 NE7       29.93S
TERRE HAUTE    CLEAR     78  59  51 SE5       29.92R

$$

INZ030>032-037>040-046>048-054>057-064-065-010200-
CENTRAL INDIANA

CITY           SKY/WX    TMP DP  RH WIND       PRES   REMARKS
COLUMBUS       CLEAR     77  57  50 CALM      29.94R
INDIANAPOLIS   PTCLDY    81  56  42 SE3       29.93S
-EAGLE CREEK   CLEAR     81  56  42 CALM      29.93S
KOKOMO *+      PTCLDY    72  57  60 N12       29.97R
SHELBYVILLE    CLEAR     78  63  59 CALM      29.94R

$$

INZ033-034-041-042-049-050-058-059-010200-
EAST CENTRAL INDIANA

CITY           SKY/WX    TMP DP  RH WIND       PRES   REMARKS
MUNCIE         CLOUDY    78  61  55 CALM      29.96R

$$

INZ060-061-067>069-081>083-085>088-010200-
SOUTHWEST INDIANA

CITY           SKY/WX    TMP DP  RH WIND       PRES   REMARKS
EVANSVILLE     PTCLDY    79  61  53 E6        29.90S
HUNTINGBURG *+ CLEAR     77  63  61 CALM      29.93R

$$

INZ062-063-066-070>080-084-089>092-010200-
SOUTH CENTRAL AND SOUTHEAST INDIANA

CITY           SKY/WX    TMP DP  RH WIND       PRES   REMARKS
BLOOMINGTON    CLEAR     75  64  68 CALM      29.94R
MADISON *+     CLEAR     75  61  60 CALM      29.97S
SEYMOUR +      CLEAR     81  61  50 CALM      29.93S

$$




USA.gov is the U.S. government's official web portal to all federal, state and local government web resources and services.